Voltar ao catálogo

IRIDE-MS1-EAG2-3

AtivoCiênciaSSO
NORAD 66697·PAYLOAD·🇮🇹 Italy

Lançado Nov 28, 2025 de Vandenberg Space Force Base

Loading…

Próximas Passagens (próximas 24 horas)

TLE

AtualizadoSource: Space-Track

Época: Sep 14, 2026, 03:23 UTC

1 66697U 25276AH  26257.14158639  .00005940  00000-0  26400-3 0  9998
2 66697  97.4109 329.5772 0002431  47.3901 312.7540 15.21890599 43968

Acompanhe IRIDE-MS1-EAG2-3 em tempo real com AllMySat

Download on the App Store